User: anonymous   Login
Location: Unspecified
(0.0000°N, 0.0000°E)
Time: 14:33:24
(UTC+02:00)
Language:

GP-B - Orbit

View from above orbital plane
View from above orbital plane
View from above satellite
View from above satellite

Ground track
Ground track

The orbit data is extracted from the following two-line orbital elements,

1 28230U 04014A   18114.14164948  .00000135  00000-0  16146-4 0  9997
2 28230  89.8310 115.8789 0003249  99.1863 260.9728 14.78612742755046
Epoch (UTC): 24 April 2018 03:23:58
Eccentricity: 0.0003249
inclination: 89.8310°
perigee height: 631 km
apogee height: 636 km
right ascension of ascending node: 115.8789°
argument of perigee: 99.1863°
revolutions per day: 14.78612742
mean anomaly at epoch: 260.9728°
orbit number at epoch: 75504

The dashed part of the orbit path shows where the satellite is in the earth's shadow,  

DLR